Location: Dziadowski
(50.3833°N, 20.0333°E)
Time: 20:47:12
(UTC+00:00)

Cosmos 220 Rocket - Pass Details

Date: 18 January 2026
Orbit: 540 x 575 km, 74.0° (Epoch: 15 February)

Event Time Altitude Azimuth Distance (km) Brightness Sun altitude
Exits shadow 05:04:36 - 338° (NNW) 2,017 6.3 -13.5°
Reaches altitude 10° 05:04:55 10° 338° (NNW) 1,890 6.2 -13.4°
Maximum altitude 05:09:08 78° 65° (ENE) 588 4.0 -12.8°
Drops below altitude 10° 05:13:17 10° 153° (SSE) 1,858 7.2 -12.1°
Sets 05:15:28 0° 154° (SSE) 2,744 8.1 -11.8°
